Find Starlink 11230

NORAD ID: 61053 Int'l Des: 2024-164 Owner: SPXS Country: US Constellation: starlink operational
LEOCIRCULAR

リアルタイム位置

3D地球を読み込み中...

Starlink 11230について

説明を読み込み中...

次回通過

Passes for default location (London). Set your location on the main map for personalized predictions.

高度履歴

Loading altitude history...

軌道要素

1 61053U 24164D 26127.09153352 .00001893 00000-0 20481-4 0 9998
2 61053 53.1588 23.2158 0001211 70.7056 289.4093 15.69712257 94595
Epoch: May 7, 2026 • Age: 16 hours

現在のステータス

高度 364.3 km
速度 7.69 km/s
衛星直下点 -15.07°S, 71.06°E
打ち上げ日 Sep 13, 2024
運用期間 1.6 years
タイプ internet

技術仕様

分類 Payload
質量 960.00 kg
乾燥質量 910.00 kg
総質量 960.00 kg
長さ 0.30 m
直径 4.10 m
スパン 29.00 m
形状 Box + pan
製造者 SPXS
バスタイプ Starlink V2MD
フェーズステータス In Orbit
所有者/国 SPXS/US

Most Searched